{"data":{"norad_id":59550,"epoch":"2026-05-24T16:56:45.257568Z","epoch_age_seconds":97097,"freshness":"FRESH","line1":"1 59550U 24074S   26144.70607937 -.00001029  00000+0 -27888-4 0  9997","line2":"2 59550  43.0002 273.9164 0001548   9.7312 350.3569 15.27551764117640","mean_motion":15.27551764,"eccentricity":0.0001548,"inclination_deg":43.0002,"raan_deg":273.9164,"arg_perigee_deg":9.7312,"mean_anomaly_deg":350.3569,"bstar":-2.7888e-5,"rev_number":11764,"period_min":94.268491185481,"perigee_km":482.07152138785,"apogee_km":484.19577077988,"semimajor_km":6861.2706460839,"source":"CELESTRAK","updated_at":"2026-05-25T13:38:18.982470Z"}}